St. Joseph, KS

8:45 PM CDT on June 23, 2017 (GMT -0500)
Rosecrans Memorial

Weather History for KSTJ - January, 2014

Change the Weather History Date:

Sunday, January 26, 2014

  Actual Average Record
Temperature  
Mean Temperature 36 °F 28 °F  
Max Temperature 56 °F 38 °F 66 °F (2002)
Min Temperature 15 °F 18 °F -12 °F (1936)
Degree Days  
Heating Degree Days 29 37  
Month to date heating degree days 1084 985  
Since 1 July heating degree days 3512 3198  
Cooling Degree Days 0 0  
Month to date cooling degree days 0 0  
Year to date cooling degree days 0 0  
Moisture  
Dew Point 21 °F    
Average Humidity 47    
Maximum Humidity 69    
Minimum Humidity 25    
Precipitation  
Precipitation 0.00 in 0.02 in 0.67 in (1916)
Month to date precipitation 0.01 0.45  
Year to date precipitation 0.01 0.45  
Sea Level Pressure  
Sea Level Pressure 29.78 in    
Wind  
Wind Speed 21 mph (WNW)    
Max Wind Speed 47 mph    
Max Gust Speed 60 mph    
Visibility 10 miles    
Events      
T = Trace of Precipitation, MM = Missing Value Source: NWS Daily Summary

Daily Weather History Graph

Daily Weather History Graph

Search for Another Location

Airport or City:

Trip Planner

Search our weather history database for the weather conditions in past years. The results will help you decide how hot, cold, wet, or windy it might be!

Date:

Astronomy

Jan. 26, 2014 Rise Set
Actual Time 7:32 AM CST 5:32 PM CST
Civil Twilight 7:03 AM CST 6:01 PM CST
Nautical Twilight 6:31 AM CST 6:33 PM CST
Astronomical Twilight 5:59 AM CST 7:05 PM CST
Moon 3:10 AM CST (1/26) 1:22 PM CST (1/26)
Length of Visible Light 10h 57m
Length of Day
9h 59m
Waning Crescent, 23% of the Moon is Illuminated
Jan 26
Waning Crescent
Jan 30
New
Feb 6
First Quarter
Feb 14
Full
Feb 22
Last Quarter

Hourly Weather History & Observations

Time (CST) Temp. Windchill Dew Point Humidity Pressure Visibility Wind Dir Wind Speed Gust Speed Precip Events Conditions
12:53 AM 37.0 °F 26.4 °F 26.1 °F 65% 29.65 in 10.0 mi SW 20.7 mph - N/A   Clear
1:53 AM 39.9 °F 30.0 °F 28.0 °F 63% 29.61 in 10.0 mi SW 21.9 mph 28.8 mph N/A   Clear
2:53 AM 42.1 °F 33.6 °F 28.9 °F 60% 29.62 in 10.0 mi WSW 18.4 mph 26.5 mph N/A   Clear
3:53 AM 44.1 °F 35.7 °F 30.0 °F 58% 29.62 in 10.0 mi WSW 20.7 mph - N/A   Clear
4:53 AM 46.0 °F 39.9 °F 28.9 °F 51% 29.63 in 10.0 mi West 13.8 mph - N/A   Scattered Clouds
5:53 AM 42.1 °F 34.9 °F 28.0 °F 58% 29.65 in 10.0 mi WSW 13.8 mph - N/A   Clear
6:53 AM 39.9 °F 32.1 °F 28.0 °F 63% 29.68 in 10.0 mi West 13.8 mph - N/A   Clear
7:53 AM 34.0 °F 27.2 °F 25.0 °F 70% 29.70 in 10.0 mi NW 8.1 mph - N/A   Clear
8:53 AM 45.0 °F 41.2 °F 30.0 °F 56% 29.70 in 10.0 mi West 6.9 mph - N/A   Clear
9:35 AM 48.0 °F - 28.0 °F 46% 29.69 in 10.0 mi NW 13.8 mph - N/A   Clear
9:53 AM 48.9 °F - 28.0 °F 44% 29.70 in 10.0 mi NW 15.0 mph - N/A   Clear
10:53 AM 51.1 °F - 28.9 °F 43% 29.71 in 10.0 mi NW 20.7 mph 25.3 mph N/A   Clear
11:53 AM 53.1 °F - 28.9 °F 40% 29.70 in 10.0 mi WNW 16.1 mph 24.2 mph N/A   Clear
12:53 PM 54.0 °F - 26.1 °F 34% 29.65 in 10.0 mi WNW 18.4 mph - N/A   Clear
1:53 PM 55.9 °F - 26.1 °F 32% 29.63 in 10.0 mi West 23.0 mph 26.5 mph N/A   Clear
2:53 PM 55.0 °F - 24.1 °F 30% 29.63 in 10.0 mi WNW 20.7 mph - N/A   Clear
3:53 PM 54.0 °F - 24.1 °F 31% 29.65 in 10.0 mi West 13.8 mph 19.6 mph N/A   Scattered Clouds
4:53 PM 50.0 °F - 24.1 °F 36% 29.67 in 10.0 mi WNW 6.9 mph - N/A   Overcast
5:41 PM 44.1 °F 32.2 °F 25.0 °F 47% 29.74 in 9.0 mi North 43.7 mph 61.0 mph N/A   Squalls
5:53 PM 41.0 °F 27.3 °F 23.0 °F 49% 29.78 in 10.0 mi North 48.3 mph 56.4 mph N/A   Mostly Cloudy
6:53 PM 34.0 °F 18.0 °F 1.9 °F 26% 29.91 in 10.0 mi NNW 43.7 mph 57.5 mph N/A   Mostly Cloudy
7:53 PM 30.9 °F 16.2 °F 3.9 °F 32% 30.02 in 10.0 mi North 29.9 mph 42.6 mph N/A   Overcast
8:53 PM 24.1 °F 6.1 °F 1.9 °F 38% 30.12 in 10.0 mi North 33.4 mph 43.7 mph N/A   Overcast
9:53 PM 21.0 °F 4.3 °F -0.9 °F 38% 30.19 in 10.0 mi North 24.2 mph 39.1 mph N/A   Scattered Clouds
10:53 PM 18.0 °F 0.2 °F -2.0 °F 41% 30.24 in 10.0 mi North 24.2 mph 31.1 mph N/A   Partly Cloudy
11:53 PM 15.1 °F -4.4 °F -5.1 °F 41% 30.30 in 10.0 mi North 26.5 mph 35.7 mph N/A   Clear